STARLINK-34344, 64159

Orbit data source: Space-Track

STARLINK-34344, 64159 is a payload satellite owned by SpaceX/Seattle (US) in SSO that was launched on Tue, 27 May 2025 UTC via an FALCON 9 launch vehicle from the Air Force Western Test Range (AFWTR). Payload-class satellites include a variety of spacecraft equipped with specific instruments for various scientific and technological missions. These include communications satellites like Starlink; space stations such as the ISS; scientific satellites like the Hubble; Earth observation satellites from companies like Planet Labs, Umbra, and HawkEye 360; GPS; miniature CubeSats for education and research; and military/defense satellites.

Loading next visibility...
Identifier
64159, 2025-112P
Orbit
SSO
Country
Flag of USUS
Related business
Manufacturer
SpaceX/Seattle
Mission
Operational Commercial Communications
Bus & Motor
STARLINK V2MO, Unknown motor
Mass
575 kg wet, ~530 kg dry
Launch date (UTC)
2025-05-27 (1 year ago)
Launch vehicle
FALCON 9
Launch site
Air Force Western Test Range (AFWTR)
Object type
Payload
Rocket body
Debris
Shape & HBR
Box + 2 Pan, 17.7 m
Radar Cross Section
36.964 m², Large (>1 m²)

Expand to show TLE details & history
Last TLE update: 7 hours ago

TLE from 7 hours ago
0 STARLINK-34344
1 64159U 25112P   26193.08999343  .00004821  00000-0  33761-3 0  9990
2 64159  97.2825 242.1478 0002587 124.2392 235.9081 15.05670751 62028
Epoch: 2026-07-12T02:09Z
TLE epoch observation values (Epoch: 2026-07-12T02:09:35.432Z)
Latitude
-0.00002°
Longitude
-80.24369°
Altitude
553.527 km
Speed
7.584 km/s
True Right ascension
16h 08m 35s
True Declination
0° 00' 00"
Sunlit
Object was in full shadow at epoch
Visualization orbit readout
Latitude
Unknown
Longitude
Unknown
Altitude
Unknown
Speed
Unknown
Apparent Right ascension
Unknown
Apparent Declination
Unknown
Sunlit
N/A
Visualization observer readout
Local Sidereal Time
21:10:12
Azimuth
Unknown
Elevation
Unknown
Doppler factor
Unknown
Orbital elements
Apogee altitude
548.219 km
Perigee altitude
544.636 km
Semi-major axis
6,924.564 km
Eccentricity
0.00026
Inclination
97.2825°
RAAN
242.1478°
Arg. of periapsis
124.2392°
True anomaly
235.88355°
Mean anomaly
235.9081°
Eccentric anomaly
235.89583°
Mean motion
3.76664 °/min
Orbital period
95.58 mins
BSTAR
0.00033761
Loading maneuver chart data...
Computing Atmospheric mass density...
Loading historical data...
Loading historical data...
Loading historical data...
Loading historical data...
Loading historical data...
Loading historical data...
Loading historical data...

Documentation

Showing up to 5 results
|